Date,TemperatureHighF,TemperatureAvgF,TemperatureLowF,DewpointHighF,DewpointAvgF,DewpointLowF,HumidityHigh,HumidityAvg,HumidityLow,PressureMaxIn,PressureMinIn,WindSpeedMaxMPH,WindSpeedAvgMPH,GustSpeedMaxMPH,PrecipitationSumIn
2013-1-1,43,41,39,42,39,37,94,93,93,29.97,29.39,1,0,4,0.00
2013-1-2,53,46,40,51,44,39,94,94,94,30.20,29.97,1,0,5,0.00
2013-1-3,52,51,43,50,49,41,94,94,93,30.56,29.57,1,0,2,0.06
2013-1-4,50,49,48,49,47,46,94,93,93,30.69,30.55,1,0,5,0.06
2013-1-5,50,49,46,48,47,44,93,92,92,30.61,30.43,2,0,6,0.03
2013-1-6,50,47,43,47,44,40,92,92,91,30.52,30.34,2,0,5,0.03
2013-1-7,50,48,46,48,46,44,91,91,90,30.35,30.14,2,0,8,0.03
2013-1-8,52,49,42,50,46,39,91,90,90,30.33,30.20,1,0,5,0.00
2013-1-9,43,39,35,40,36,33,90,90,89,30.30,30.12,1,0,3,0.00
2013-1-10,39,37,35,36,34,32,91,90,90,30.12,29.97,1,0,2,0.00
2013-1-11,40,37,34,38,35,32,91,91,90,30.07,29.95,0,0,3,0.00
2013-1-12,40,36,31,37,34,28,91,90,89,30.13,29.93,1,0,5,0.00
2013-1-13,35,32,29,32,30,27,90,90,90,30.18,30.03,0,0,1,0.00
2013-1-14,38,35,33,35,32,30,91,90,90,30.03,29.70,1,0,5,0.06
2013-1-15,36,32,28,33,30,25,90,90,90,29.90,29.77,2,0,4,0.06
2013-1-16,33,30,26,30,27,23,90,89,88,29.95,29.81,1,0,3,0.00
2013-1-17,35,32,30,32,29,27,88,88,87,29.98,29.80,2,0,10,0.00
2013-1-18,33,32,30,30,28,27,87,87,86,29.80,29.46,2,1,9,0.00
2013-1-19,35,33,31,32,30,27,88,87,86,29.65,29.48,1,0,6,0.03
2013-1-20,35,34,33,31,30,29,87,86,85,29.84,29.41,1,0,6,0.03
2013-1-21,36,34,32,32,30,28,87,86,85,29.42,29.32,1,0,5,0.00
2013-1-22,36,32,30,32,29,27,87,87,86,29.77,29.42,2,0,7,0.00
2013-1-23,36,33,32,33,30,28,88,87,87,29.89,29.77,0,0,1,0.00
2013-1-24,38,34,32,34,31,28,88,87,86,30.06,29.89,2,0,5,0.03
2013-1-25,34,33,31,31,30,27,88,86,85,30.03,29.40,2,0,7,0.00
2013-1-26,41,38,34,38,35,31,88,88,86,29.65,29.16,2,0,7,0.06
2013-1-27,42,41,39,40,38,37,92,91,88,29.25,28.98,2,1,5,0.06
2013-1-28,48,43,39,45,40,37,91,90,89,29.47,29.08,5,2,13,0.17
2013-1-29,51,47,44,49,45,42,93,91,89,29.49,29.12,3,1,9,0.06
2013-1-30,45,42,42,43,40,39,92,92,91,29.74,29.29,2,1,6,0.03
2013-1-31,45,44,42,42,38,36,92,80,72,29.74,29.44,3,1,7,0.00
2013-2-1,44,41,35,40,37,31,85,84,78,29.75,29.44,1,0,6,0.00
2013-2-2,39,35,31,34,30,26,85,83,81,30.21,29.75,2,0,6,0.00
2013-2-3,48,48,32,44,43,27,87,85,82,30.14,29.69,2,0,4,0.00
2013-2-4,48,40,37,44,36,34,91,86,79,29.76,29.52,2,2,7,0.06
2013-2-5,40,37,33,38,35,31,92,92,91,29.52,29.13,2,1,7,0.00
2013-2-6,40,37,34,38,35,32,92,92,91,30.10,29.36,3,1,13,0.00
2013-2-7,39,35,31,36,33,28,92,91,91,30.10,29.97,1,0,2,0.00
2013-2-8,44,40,34,40,37,32,91,89,87,30.18,30.05,2,0,5,0.00
2013-2-9,42,39,37,40,36,34,91,89,88,30.14,29.85,0,0,1,0.00
2013-2-10,38,38,36,36,34,33,89,88,87,29.85,29.32,1,0,4,0.00
2013-2-11,39,37,35,34,32,30,87,83,80,29.85,29.36,1,0,5,0.00
2013-2-12,38,36,34,33,31,30,84,83,81,30.07,29.85,1,0,4,0.00
2013-2-13,36,34,32,33,30,28,89,86,83,30.06,29.69,5,2,14,0.03
2013-2-14,46,44,36,42,40,33,89,87,86,29.88,29.69,1,0,4,0.06
2013-2-15,47,46,40,43,41,37,88,84,81,30.11,29.88,1,0,2,0.06
2013-2-16,48,45,40,43,41,36,87,85,83,30.20,30.09,1,0,4,0.06
2013-2-17,48,44,38,40,38,33,85,78,75,30.16,30.07,3,1,7,0.06
2013-2-18,38,35,34,33,30,29,82,82,81,30.08,30.08,0,0,0,0.06
2013-2-19,49,40,29,42,35,24,84,81,78,30.12,30.06,1,0,4,0.00
2013-2-20,41,37,33,35,32,28,85,82,79,30.30,30.09,2,1,8,0.00
2013-2-21,39,36,32,32,29,26,81,76,72,30.33,30.22,3,1,7,0.00
2013-2-22,36,35,33,30,28,26,78,77,75,30.29,30.19,1,0,4,0.00
2013-2-23,40,36,33,33,30,28,80,79,78,30.30,30.19,1,0,5,0.00
2013-2-24,41,39,33,35,33,28,82,81,80,30.41,30.30,2,0,4,0.00
2013-2-25,48,41,35,42,35,30,83,80,76,30.58,30.40,3,1,9,0.00
2013-2-26,50,43,32,44,36,26,83,78,75,30.68,30.57,2,0,5,0.00
2013-2-27,50,42,29,43,35,24,83,75,69,30.69,30.56,1,0,2,0.00
2013-2-28,53,45,28,44,37,22,80,75,72,30.57,30.46,1,0,5,0.00
2013-3-1,50,44,36,41,37,28,78,74,72,30.56,30.43,2,0,5,0.00
2013-3-2,48,42,35,41,36,28,79,78,74,30.44,30.26,2,0,3,0.00
2013-3-3,48,45,37,43,39,31,82,79,76,30.28,30.11,1,0,4,0.00
2013-3-4,48,42,36,40,35,29,80,76,73,30.11,29.74,3,1,7,0.00
2013-3-5,54,46,30,45,38,24,80,74,70,29.74,29.58,2,0,4,0.00
2013-3-6,43,36,35,34,30,29,78,77,72,29.62,29.59,0,0,0,0.00
2013-3-7,49,44,35,44,40,29,84,82,78,29.62,29.47,2,0,7,0.06
2013-3-8,45,42,41,40,38,36,85,84,82,29.63,29.50,3,0,8,0.00
2013-3-9,41,38,36,36,34,31,85,85,84,29.81,29.62,1,0,5,0.25
2013-3-10,39,36,30,33,29,23,84,77,74,29.99,29.79,2,1,6,0.25
2013-3-11,39,33,25,34,26,19,81,74,69,30.06,29.98,2,0,8,0.00
2013-3-12,41,38,27,33,30,20,77,72,69,30.01,29.83,2,0,4,0.00
2013-3-13,47,39,30,39,31,22,79,71,66,29.96,29.83,2,0,7,0.00
2013-3-14,47,36,28,39,29,20,80,75,71,29.96,29.67,1,0,2,0.03
2013-3-15,48,41,38,42,36,32,85,81,77,29.67,29.36,3,0,7,0.03
2013-3-16,46,41,36,40,35,30,84,80,76,29.36,29.18,3,0,7,0.03
2013-3-17,40,36,35,36,31,30,84,82,80,29.18,29.11,0,0,0,0.03
2013-3-19,41,40,38,36,35,33,83,83,83,29.55,29.48,0,0,2,0.03
2013-3-20,42,38,33,36,32,27,83,80,78,30.00,29.55,2,1,9,0.03
2013-3-21,46,36,29,38,29,23,82,76,70,30.06,29.95,2,1,14,0.03
2013-3-22,35,34,33,30,29,27,84,81,73,29.96,28.96,3,2,12,0.00
2013-3-23,34,34,33,29,28,27,82,80,78,29.12,28.96,3,2,9,0.00
2013-3-24,39,35,32,30,27,26,78,73,68,29.21,29.10,3,2,10,0.00
2013-3-25,41,36,32,32,28,25,75,73,70,29.26,29.19,3,1,9,0.00
2013-3-26,41,35,32,32,27,25,75,73,71,29.20,29.09,2,1,7,0.00
2013-3-27,44,36,31,34,28,24,76,72,67,29.10,29.04,2,1,8,0.00
2013-3-28,46,39,32,35,29,22,74,68,63,29.09,29.02,2,1,6,0.00
2013-3-29,46,40,31,36,30,22,70,67,65,29.02,28.90,2,0,8,0.00
2013-3-30,46,40,30,36,29,20,73,65,61,29.04,28.93,2,0,8,0.00
2013-3-31,46,36,26,36,25,17,71,65,58,29.05,28.96,3,0,9,0.00
2013-4-1,48,42,34,34,29,22,68,61,56,29.04,28.97,3,1,9,0.00
2013-4-2,47,38,32,36,27,21,70,65,62,29.22,29.04,2,0,5,0.00
2013-4-3,56,47,34,43,33,23,71,59,54,29.31,29.22,2,1,9,0.00
2013-4-4,54,41,31,41,29,22,71,63,57,29.26,29.18,2,1,7,0.00
2013-4-5,46,42,37,35,31,28,72,67,63,29.27,29.21,2,1,8,0.00
2013-4-6,58,50,39,45,36,26,71,59,54,29.35,29.24,2,0,6,0.00
2013-4-7,51,44,39,39,32,26,68,62,56,29.25,28.96,1,0,5,0.00
2013-4-8,44,40,37,34,31,27,71,68,64,28.98,28.71,2,0,6,0.00
2013-4-9,52,46,37,41,35,27,68,64,63,28.71,28.64,2,1,6,0.00
2013-4-12,53,50,40,43,41,29,72,70,65,28.65,28.53,2,0,4,0.00
2013-4-13,58,53,47,47,42,38,79,69,53,28.84,28.61,5,2,12,0.00
2013-4-14,56,53,50,51,49,44,91,84,77,28.71,28.58,7,5,18,0.06
2013-4-15,55,52,48,49,46,44,88,80,71,28.94,28.71,4,2,13,0.03
2013-4-16,57,51,47,46,42,36,85,72,57,28.94,28.63,6,2,15,0.03
2013-4-17,58,52,45,51,46,36,89,81,67,28.93,28.38,8,4,22,0.08
2013-4-18,53,47,44,45,42,41,91,84,70,28.91,28.38,2,0,5,0.06
2013-4-19,60,51,43,52,45,36,92,80,68,29.50,28.91,1,0,3,0.00
2013-4-20,43,43,43,36,36,36,76,76,76,29.50,29.50,0,0,0,0.00
2013-4-21,58,50,44,45,41,36,80,73,60,29.10,28.96,4,1,12,0.00
2013-4-22,44,43,43,36,36,36,78,77,74,28.96,28.91,0,0,0,0.00
2013-4-24,60,53,44,51,46,36,86,76,64,29.30,28.96,1,0,5,0.00
2013-4-25,58,49,46,46,42,38,83,76,64,29.29,29.12,1,0,4,0.06
2013-4-26,50,45,38,41,37,32,80,73,63,29.12,28.94,2,0,6,0.06
2013-4-27,63,46,36,46,37,30,83,69,48,29.20,29.00,2,0,7,0.03
2013-4-28,52,48,42,46,42,31,86,80,64,29.06,28.76,1,0,7,0.03
2013-4-29,58,50,43,43,39,34,80,68,54,29.18,28.77,2,1,5,0.00
2013-4-30,62,50,40,48,38,31,75,64,40,29.42,29.18,2,0,5,0.00
2013-5-1,62,50,40,46,37,29,73,62,47,29.33,29.26,3,0,7,0.00
2013-5-2,68,52,37,47,36,26,70,55,38,29.36,28.93,2,1,6,0.00
2013-5-3,57,53,50,46,45,36,79,74,58,29.14,28.87,3,2,8,0.00
2013-5-4,58,53,49,46,42,40,80,66,57,29.02,28.87,1,0,5,0.00
2013-5-5,62,58,49,52,48,40,77,71,66,29.22,29.01,4,1,10,0.00
2013-5-6,74,57,49,56,46,41,79,68,47,29.23,29.10,2,0,8,0.00
2013-5-7,59,51,46,43,39,36,67,63,56,29.16,29.12,0,0,0,0.00
2013-5-8,64,59,46,52,48,36,79,68,55,29.16,28.60,4,2,9,0.00
2013-5-9,53,49,46,44,42,38,81,76,63,28.66,28.35,4,2,14,0.11
2013-5-10,58,51,46,49,44,40,83,76,61,28.79,28.40,2,0,6,0.11
2013-5-11,57,49,46,51,44,40,90,83,68,28.81,28.70,2,1,6,0.00
2013-5-12,54,49,45,48,43,40,84,80,72,28.97,28.76,3,1,8,0.00
2013-5-13,53,46,41,45,40,36,90,80,69,28.82,28.63,4,1,7,0.00
2013-5-14,64,50,43,46,38,35,78,65,47,28.63,28.41,3,1,9,0.00
2013-5-15,53,47,42,44,41,35,85,78,62,28.49,28.32,2,0,5,0.06
2013-5-16,62,48,38,50,41,33,83,76,60,28.67,28.49,3,0,7,0.06
2013-5-17,68,56,44,52,46,38,81,68,53,28.88,28.66,2,0,5,0.03
2013-5-18,56,53,49,51,48,41,84,82,67,28.86,28.76,0,0,3,0.03
2013-5-19,60,54,52,54,49,46,84,82,80,29.10,28.83,1,0,4,0.03
2013-5-20,66,61,56,60,56,50,86,83,81,29.17,29.05,0,0,2,0.00
2013-5-21,74,62,54,58,52,46,83,71,55,29.27,29.11,1,0,4,0.00
2013-5-22,64,57,50,46,41,33,76,56,40,29.23,29.06,2,2,6,0.00
2013-5-23,52,48,42,40,36,34,75,65,53,29.06,28.94,2,0,5,0.00
2013-5-24,56,49,43,45,40,34,79,71,64,29.25,28.94,2,0,7,0.00
2013-5-25,76,60,38,53,45,31,77,57,38,29.31,29.20,1,0,5,0.00
2013-5-26,73,58,42,54,42,30,65,55,41,29.22,28.96,2,0,6,0.00
2013-5-27,60,52,49,46,44,42,79,77,51,28.96,28.57,3,2,11,0.00
2013-5-28,57,56,49,50,47,43,79,74,70,28.74,28.60,2,0,5,0.00
2013-5-29,57,56,53,51,50,45,82,80,70,29.01,28.72,1,0,2,0.00
2013-5-30,74,62,54,63,53,45,81,73,67,29.19,28.99,1,0,5,0.00
2013-5-31,75,65,51,64,51,39,74,62,45,29.35,29.16,2,1,5,0.00
2013-6-1,67,55,45,49,42,36,74,64,52,29.43,29.28,1,0,5,0.00
2013-6-2,72,62,49,54,47,37,66,58,53,29.53,29.37,1,0,4,0.00
2013-6-3,80,66,50,62,53,41,71,62,51,29.67,29.51,0,0,4,0.00
2013-6-4,86,66,51,62,50,40,70,57,44,29.63,29.35,2,0,5,0.00
2013-6-5,76,68,52,59,52,41,67,57,49,29.36,29.22,1,0,5,0.00
2013-6-6,59,58,56,48,47,44,69,69,65,29.36,29.25,0,0,0,0.00
2013-6-7,94,76,56,64,55,43,69,49,32,29.47,29.14,1,0,5,0.00
2013-6-8,84,74,60,58,52,41,61,45,38,29.47,29.18,1,0,5,0.00
2013-6-9,83,70,56,61,52,41,61,53,45,29.18,29.06,1,0,4,0.08
2013-6-10,81,67,54,58,51,42,69,57,44,29.11,28.97,2,1,5,0.00
2013-6-11,63,60,53,52,49,41,71,67,52,29.00,28.82,3,1,6,0.00
2013-6-12,67,62,58,57,53,49,79,71,63,28.82,28.68,3,1,6,0.00
2013-6-13,58,58,57,51,51,50,77,76,73,28.82,28.68,0,0,0,0.00
2013-6-16,75,67,58,58,52,47,76,59,50,29.05,28.82,2,1,5,0.00
2013-6-17,62,57,56,50,47,46,71,70,59,29.19,29.05,0,0,1,0.00
2013-6-18,72,66,60,55,50,48,71,58,55,29.18,29.04,0,0,2,0.00
2013-6-19,71,63,59,56,50,47,67,63,52,29.16,29.05,1,0,4,0.00
2013-6-20,77,68,54,59,54,43,65,61,52,29.13,28.91,3,0,8,0.00
2013-6-21,79,67,59,61,54,46,73,63,47,28.97,28.76,2,0,6,0.00
2013-6-22,60,57,54,52,50,47,79,75,62,29.51,28.56,2,0,6,0.00
2013-6-23,62,58,53,54,52,46,81,78,75,29.72,29.40,2,1,4,0.00
2013-6-24,62,56,51,54,46,42,77,67,62,30.27,29.72,1,0,4,0.00
2013-6-25,68,62,51,56,49,42,74,63,57,30.42,30.27,1,0,3,0.00
2013-6-26,74,65,54,55,50,44,73,59,50,30.48,30.36,1,0,4,0.00
2013-6-27,61,58,55,51,49,44,79,72,59,30.38,30.16,0,0,2,0.00
2013-6-28,67,61,58,59,54,51,83,80,75,30.18,30.07,1,0,5,0.00
2013-6-29,64,61,58,54,51,49,75,69,65,30.30,30.09,1,0,4,0.00
2013-6-30,66,61,56,56,52,48,76,72,67,30.18,30.00,3,1,7,0.00
2013-7-1,72,61,53,56,49,42,75,64,54,30.10,29.91,1,0,4,0.00
2013-7-2,60,58,55,50,49,42,74,70,61,29.92,29.61,3,2,9,0.00
2013-7-3,59,59,56,53,53,48,80,80,74,29.65,29.61,0,0,0,0.00
2013-7-4,72,65,59,60,54,48,80,70,62,30.22,29.65,2,0,5,0.00
2013-7-5,87,75,56,69,59,47,72,58,54,30.49,30.22,0,0,2,0.00
2013-7-6,89,78,64,67,59,46,67,53,41,30.48,30.38,2,1,6,0.00
2013-7-7,92,72,57,71,56,43,65,58,47,30.77,30.46,0,0,2,0.00
2013-7-8,102,82,61,70,60,49,68,50,34,30.83,30.45,2,0,6,0.00
2013-7-9,101,86,64,73,64,50,64,50,40,30.65,30.41,1,0,4,0.00
2013-7-10,84,73,65,67,58,50,64,60,48,30.57,30.40,1,0,4,0.00
2013-7-11,99,80,57,72,61,46,70,54,40,30.48,30.31,1,0,4,0.00
2013-7-12,89,83,70,69,64,53,65,54,49,30.58,30.36,1,0,4,0.00
2013-7-13,90,83,70,67,63,53,67,53,42,30.57,30.32,1,0,3,0.00
2013-7-14,87,85,74,58,56,53,47,37,33,30.40,30.14,1,0,4,0.00
2013-7-15,86,74,59,63,55,44,59,51,34,30.35,30.15,1,0,5,0.00
2013-7-16,83,76,63,64,59,47,63,55,51,30.40,30.31,1,0,3,0.00
2013-7-17,88,78,60,64,57,49,67,50,39,30.53,30.30,1,0,3,0.00
2013-7-18,101,86,62,71,63,48,63,47,36,30.53,30.35,0,0,4,0.00
2013-7-19,102,87,67,72,64,49,65,47,33,30.71,30.33,1,0,5,0.00
2013-7-20,84,77,67,63,58,49,60,53,46,30.60,30.34,2,0,6,0.00
2013-7-21,84,76,66,62,57,51,60,51,45,30.39,30.16,3,1,8,0.00
2013-7-22,94,82,66,71,63,52,63,53,45,30.23,30.06,2,0,7,0.00
2013-7-23,79,72,66,66,61,56,74,69,61,30.13,30.03,2,0,5,0.00
2013-7-24,87,75,64,70,62,55,76,64,55,30.19,29.97,1,0,5,0.00
2013-7-25,83,71,64,67,59,52,75,67,57,30.06,29.91,2,0,6,0.00
2013-7-26,85,76,65,63,58,48,69,54,47,30.07,29.86,2,1,6,0.14
2013-7-27,84,74,61,66,58,48,67,56,48,29.92,29.66,2,0,6,0.06
2013-7-28,85,71,60,66,57,52,77,63,50,29.76,29.64,2,1,8,0.11
2013-7-29,82,72,63,63,58,50,77,62,51,29.89,29.69,2,0,5,0.11
2013-7-30,76,67,59,58,53,47,69,60,51,30.01,29.79,1,0,6,0.19
2013-7-31,75,68,59,60,56,48,76,66,56,30.04,29.81,1,0,4,0.77
2013-8-1,70,68,63,63,61,56,79,78,76,30.00,29.81,2,1,8,0.77
2013-8-2,80,72,66,65,59,51,78,63,55,30.00,29.70,2,0,7,0.80
2013-8-3,73,66,60,56,52,49,68,61,55,30.04,29.73,2,1,12,0.91
2013-8-4,79,70,60,62,57,50,74,65,56,30.14,29.92,2,1,6,1.11
2013-8-5,64,62,58,58,56,52,80,79,71,30.05,29.89,0,0,1,2.24
2013-8-7,82,72,58,63,55,47,79,56,52,30.14,30.03,1,0,0,2.24
2013-8-8,77,65,53,61,51,42,70,61,53,30.30,30.02,1,0,2,2.24
2013-8-9,66,63,58,56,53,47,75,69,59,30.20,30.03,0,0,5,0.00
2013-8-10,66,62,58,54,51,47,71,67,65,30.34,30.08,1,0,5,0.03
2013-8-11,65,59,55,55,50,46,76,72,67,30.19,30.00,1,0,4,0.06
2013-8-12,69,61,54,57,52,46,79,72,64,30.08,29.98,1,0,2,0.03
2013-8-13,72,65,56,58,53,46,75,64,57,30.25,30.07,1,0,2,0.03
2013-8-14,73,68,58,62,56,47,74,67,61,30.34,30.13,2,1,6,0.03
2013-8-15,70,68,64,62,60,55,79,75,72,30.23,30.06,2,1,6,0.17
2013-8-16,70,66,61,60,56,51,80,69,64,30.17,30.00,1,0,4,0.17
2013-8-17,66,63,59,59,56,51,81,79,71,30.02,29.65,3,1,7,0.11
2013-8-18,68,62,56,55,52,46,80,69,63,29.95,29.67,1,0,5,0.11
2013-8-19,70,61,54,57,51,46,76,69,61,30.26,29.90,1,0,6,0.11
2013-8-20,71,65,57,59,54,48,75,69,64,30.46,30.26,2,0,6,0.00
2013-8-21,69,65,60,61,57,50,78,75,67,30.37,30.22,2,0,6,0.00
2013-8-22,80,74,63,70,61,53,78,65,60,30.41,30.14,2,0,4,0.00
2013-8-23,73,70,64,63,60,53,75,71,66,30.21,30.07,2,1,7,0.00
2013-8-24,64,60,59,55,53,53,80,80,74,30.15,30.10,0,0,1,0.00
2013-8-28,71,60,55,57,48,44,80,64,62,30.34,30.14,0,0,2,0.00
2013-8-29,67,63,55,58,55,44,76,74,66,30.33,30.17,1,0,4,0.00
2013-8-30,70,65,57,60,57,50,79,74,70,30.25,30.09,3,1,7,0.00
2013-8-31,62,59,52,51,48,44,74,68,62,30.53,30.18,2,0,5,0.00
2013-9-1,59,58,55,50,49,44,73,72,67,30.56,30.39,1,0,8,0.00
2013-9-2,69,66,58,61,59,49,80,77,72,30.57,30.40,1,0,4,0.00
2013-9-3,76,66,59,63,57,50,81,72,61,30.65,30.37,2,0,6,0.00
2013-9-4,76,68,54,59,55,47,78,64,51,30.40,30.00,2,1,8,0.00
2013-9-5,74,62,57,62,51,47,71,67,63,30.06,29.94,1,0,4,0.00
2013-9-6,63,51,49,51,45,43,82,78,65,30.00,29.80,1,0,7,1.08
2013-9-7,57,52,49,50,46,42,82,80,77,29.99,29.05,3,1,12,0.08
2013-9-8,65,53,44,56,45,38,81,75,68,29.28,29.14,2,0,7,0.08
2013-9-9,54,50,49,47,44,42,80,79,73,29.26,29.15,0,0,1,0.00
2013-9-12,68,64,53,61,57,47,81,78,73,29.43,29.16,2,0,6,0.11
2013-9-13,61,55,51,56,49,46,82,81,80,29.35,29.12,0,0,2,0.00
2013-9-15,60,54,46,56,50,42,88,84,79,29.14,28.53,2,1,5,0.53
2013-9-16,53,49,44,48,45,41,88,85,81,29.12,28.52,2,1,5,0.06
2013-9-17,52,50,46,47,45,41,84,83,82,29.15,28.99,1,0,2,0.11
2013-9-18,57,52,45,50,47,40,84,81,78,29.28,29.04,1,0,6,0.00
2013-12-7,45,45,44,43,42,40,91,90,85,29.70,29.18,0,0,0,0.00
2013-12-8,51,50,45,49,48,43,91,91,90,29.83,29.64,1,0,2,0.00
2013-12-9,51,48,45,49,44,41,91,88,86,29.86,29.66,6,1,6,0.00
2013-12-10,50,48,45,45,44,42,88,86,85,29.92,29.86,8,1,8,0.00
2013-12-11,48,44,41,44,40,36,87,84,77,29.94,29.63,4,0,4,0.00
2013-12-12,52,49,47,48,45,41,88,85,80,29.73,29.64,12,2,12,0.00
2013-12-13,66,50,46,57,46,40,89,86,72,30.04,29.42,5,1,6,0.03
2013-12-14,50,48,43,48,44,38,92,88,82,29.59,29.18,16,4,16,0.64
2013-12-15,50,46,42,48,43,40,92,91,91,29.46,29.20,10,2,10,0.22
2013-12-16,73,46,41,53,42,38,92,90,50,29.66,29.30,3,0,3,0.22
2013-12-17,42,39,36,40,37,34,92,91,90,29.85,29.30,12,2,12,0.22
2013-12-18,46,45,40,43,42,38,91,91,90,29.30,28.56,14,3,14,0.85
2013-12-19,62,40,39,59,37,36,91,91,90,29.06,28.62,4,0,4,0.06
2013-12-20,64,46,39,62,43,37,92,91,90,29.54,29.06,15,3,15,0.72
2013-12-21,49,45,40,47,43,38,92,91,88,29.25,28.93,13,2,13,0.55
2013-12-22,41,38,36,39,36,34,92,91,91,29.28,29.11,4,0,4,0.11
2013-12-23,48,45,38,46,42,35,92,92,91,29.27,28.51,14,4,14,0.94
2013-12-24,48,40,37,46,37,34,92,90,86,28.68,28.51,19,5,19,0.41
2013-12-25,43,38,34,40,36,32,92,92,90,29.32,28.68,6,0,6,0.00
2013-12-26,45,38,34,42,36,32,92,92,89,29.43,28.44,19,2,19,0.44
2013-12-27,44,42,40,41,40,38,92,92,91,29.18,28.44,14,2,14,0.28
2013-12-28,76,41,40,73,38,37,92,92,91,29.83,28.94,4,1,4,0.28
2013-12-29,48,43,40,46,40,38,92,91,89,29.99,29.48,11,2,11,0.11
2013-12-30,65,43,39,63,41,37,92,92,90,29.73,29.30,8,2,8,0.19
2013-12-31,64,42,40,61,40,38,93,92,92,29.72,29.34,7,2,7,0.05
2014-1-1,48,44,41,46,42,38,92,92,92,29.34,28.80,13,2,13,0.67
2014-1-2,63,44,43,54,42,40,92,90,72,29.30,28.88,11,2,15,0.11